Location: *
(38.3914°N, 75.0697°W)
Time: 09:14:02
(UTC+00:00)

STARLINK-1038 - Pass Details

Date: 17 February 2020
Orbit: 548 x 551 km, 53.0° (Epoch: 28 March)

Event Time Altitude Azimuth Distance (km) Brightness Sun altitude
Exits shadow 10:09:57 57° 282° (WNW) 650 3.6 -20.0°
Maximum altitude 10:10:38 71° 224° (SW) 582 3.5 -19.9°
Drops below altitude 10° 10:14:45 10° 140° (SE) 1,816 6.8 -19.1°
Sets 10:16:59 0° 138° (SE) 2,706 7.8 -18.7°
